Location: Azul
(36.7830°S, 59.8500°W)
Time: 01:32:07
(UTC-03:00)

VELOX 1 - Visible Passes

Search period start: 23 October 2021 00:00
Search period end: 02 November 2021 00:00
Orbit: 627 x 642 km, 98.3° (Epoch: 22 October)

Date Brightness Start Highest point End Pass type
(mag) Time Alt. Az. Time Alt. Az. Time Alt. Az.
23 Oct ? 04:41:38 10° SE 04:45:11 23° E 04:48:42 10° NNE visible
24 Oct ? 05:02:50 10° SSE 05:07:02 40° E 05:11:10 10° N visible
25 Oct ? 05:24:21 10° SSE 05:28:49 73° ENE 05:33:11 10° N visible
27 Oct ? 04:32:41 10° SE 04:35:44 18° E 04:38:44 10° NE visible
28 Oct ? 04:53:39 10° SE 04:57:35 31° E 05:01:29 10° NNE visible
29 Oct ? 05:15:02 10° SSE 05:19:24 55° E 05:23:42 10° N visible
31 Oct ? 04:23:58 10° ESE 04:26:14 14° E 04:28:29 10° ENE visible
01 Nov ? 04:44:32 10° SE 04:48:08 24° E 04:51:40 10° NNE visible
